Location: Newark
(42.6833°N, 12.1000°E)
Time: 00:10:04
(UTC+00:00)

N. Korean satellite - Visible Passes

Search period start: 15 November 2019 00:00
Search period end: 25 November 2019 00:00
Orbit: 456 x 506 km, 97.2° (Epoch: 14 November)

Date Brightness Start Highest point End Pass type
(mag) Time Alt. Az. Time Alt. Az. Time Alt. Az.
15 Nov 8.0 04:44:18 10° NNE 04:47:52 42° E 04:51:23 10° S visible
15 Nov 8.9 16:53:47 10° SSW 16:56:56 28° W 17:00:10 10° NW visible
16 Nov 9.4 04:19:29 10° NE 04:22:22 21° E 04:25:13 10° SE visible
16 Nov 7.2 16:27:55 10° S 16:31:29 61° W 16:35:08 10° NNW visible
17 Nov 10.3 03:55:59 10° ENE 03:56:46 11° E 03:57:33 10° ESE visible
17 Nov 6.8 05:26:51 10° N 05:30:28 52° WNW 05:34:03 10° SSW visible
18 Nov 6.9 05:01:25 10° NNE 05:05:08 73° E 05:08:47 10° S visible
18 Nov 9.7 17:11:43 10° SW 17:14:17 18° W 17:16:52 10° NW visible
19 Nov 8.5 04:36:18 10° NNE 04:39:41 33° E 04:43:02 10° SSE visible
19 Nov 8.4 16:45:22 10° SSW 16:48:44 36° W 16:52:11 10° NNW visible
20 Nov 9.7 04:11:40 10° NE 04:14:09 17° E 04:16:35 10° SE visible
20 Nov 6.8 16:19:40 10° S 16:23:18 79° WSW 16:27:01 10° NNW visible
21 Nov 6.6 05:18:38 10° N 05:22:20 66° WNW 05:25:56 10° SSW visible
21 Nov 10.2 17:30:24 10° WSW 17:31:38 11° W 17:32:51 10° WNW visible
22 Nov 7.3 04:53:17 10° NNE 04:56:56 56° E 05:00:30 10° S visible
22 Nov 9.4 17:03:05 10° SSW 17:06:01 22° W 17:08:59 10° NW visible
23 Nov 8.9 04:28:17 10° NE 04:31:27 27° E 04:34:33 10° SSE visible
23 Nov 7.9 16:36:59 10° S 16:40:30 46° W 16:44:06 10° NNW visible
24 Nov 10.0 04:03:58 10° ENE 04:05:52 13° E 04:07:44 10° ESE visible
24 Nov 7.1 05:36:00 10° N 05:39:27 39° WNW 05:42:50 10° SW visible
24 Nov 6.6 16:11:26 10° SSE 16:15:05 81° ENE 16:18:49 10° N visible
